[[{"header":{"parameterUnit":"m.s-1","parameterCategory":1,"la1":30.2991,"la2":30.254,"lo1":-89.0895,"lo2":-89.0444,"dy":0.0017,"dx":0.0017,"nx":28,"ny":28,"refTime":"2025-08-17T09:00:00:Z","depth":0,"parameterNumber":2,"parameterNumberName":"U-component_of_WINDS"},"data":[0,0,0,0,0,0,0,0,0,0,0,0,0,0,0,0,0,0,0,0,0,0,0,0,0,0,0,0,0,0,0,0,0,0,0,0,0,0,0,0,0,0,0,0,0,0,0,0,0,0,0,0,0,0,0,0,0,0,-0.8845,-0.8845,0,-0.8802,-0.8802,-0.8801,-0.876,-0.8759,-0.8759,-0.8758,-0.8716,-0.8715,-0.8715,0,0,0,0,0,0,0,0,0,0,0,0,0,-0.8892,-0.8891,-0.8845,-0.8845,-0.8844,-0.8803,-0.8802,-0.8801,-0.876,-0.8759,-0.8759,-0.8758,-0.8716,-0.8715,-0.8714,0,0,0,0,0,0,0,0,0,0,0,0,0,-0.8863,-0.8891,-0.8845,-0.8819,-0.8816,-0.8803,-0.8802,-0.8801,-0.876,-0.8759,-0.8759,-0.8758,-0.8716,-0.8715,-0.8714,-0.8725,0,0,-0.8711,-0.8711,0,0,0,0,0,0,0,0,-0.8864,-0.8861,-0.8823,-0.882,-0.8817,-0.8786,-0.8803,-0.8776,-0.876,-0.8781,-0.8758,-0.8757,-0.874,-0.8737,-0.8731,-0.8723,-0.8721,-0.8711,-0.8711,-0.871,-0.871,0,0,0,0,0,0,0,-0.8866,-0.8863,-0.8828,-0.8823,-0.8819,-0.8809,-0.8804,-0.8797,-0.8766,-0.8779,-0.8776,-0.8772,-0.8738,-0.8732,-0.8729,-0.872,-0.8711,-0.8711,-0.871,-0.871,-0.8718,-0.8719,0,0,0,0,0,0,-0.8872,-0.8864,-0.883,-0.8827,-0.8839,-0.8809,-0.8803,-0.8797,-0.8766,-0.876,-0.8773,-0.877,-0.8734,-0.873,-0.8728,-0.8738,-0.871,-0.8709,-0.8709,-0.8717,-0.8718,-0.8719,0,0,0,0,0,0,-0.8874,-0.887,-0.8831,-0.8845,-0.8839,-0.8809,-0.8802,-0.8796,-0.879,-0.876,-0.8755,-0.8772,-0.8733,-0.8729,-0.8726,-0.8736,-0.8709,-0.8708,-0.8716,-0.8718,-0.8719,-0.8759,0,0,0,0,0,0,-0.8875,-0.887,-0.8874,-0.8845,-0.8839,-0.883,-0.8802,-0.8796,-0.8788,-0.8784,-0.8758,-0.8753,-0.8732,-0.8727,-0.8725,-0.8734,-0.8707,-0.8715,-0.8717,-0.8718,-0.8756,-0.8761,-0.8765,0,0,0,0,0,-0.8877,-0.8887,-0.8874,-0.887,-0.8843,-0.8831,-0.8827,-0.8802,-0.8789,-0.8793,-0.8773,-0.8754,-0.8735,-0.8727,-0.8724,-0.8733,-0.8715,-0.8717,-0.8718,-0.8754,-0.876,-0.8765,0,0,0,0,0,0,-0.8918,-0.8883,-0.8868,-0.887,-0.8854,-0.8824,-0.8828,-0.8809,-0.8797,-0.8794,-0.8764,-0.8758,-0.8759,-0.8745,-0.8737,-0.8741,-0.8722,-0.8723,-0.875,-0.8756,-0.876,-0.8764,-0.8707,0,0,0,0,0,-0.8928,-0.8921,-0.889,-0.8894,-0.8887,-0.8859,-0.8853,-0.8835,-0.8817,-0.881,-0.8791,-0.8775,-0.8765,-0.8759,-0.8749,-0.8753,-0.8747,-0.8758,-0.8763,-0.8766,-0.8768,-0.877,-0.8775,-0.8725,-0.8725,-0.8725,0,0,-0.8947,-0.8927,-0.8924,-0.8902,-0.8888,-0.8882,-0.8853,-0.8848,-0.8843,-0.8809,-0.8805,-0.879,-0.877,-0.8771,-0.877,-0.876,-0.878,-0.8769,-0.8772,-0.8772,-0.8772,-0.8777,-0.8781,-0.8726,-0.8726,-0.8726,0,0,-0.8979,-0.8963,-0.8965,-0.895,-0.8928,-0.8909,-0.891,-0.8882,-0.8871,-0.8866,-0.884,-0.8834,-0.8818,-0.8805,-0.8796,-0.8822,-0.8804,-0.8819,-0.8843,-0.8845,-0.8849,-0.8852,-0.8862,-0.8866,-0.8821,-0.8821,-0.8821,0,-0.9006,-0.8996,-0.8968,-0.8964,-0.8955,-0.8923,-0.8925,-0.8912,-0.8888,-0.8883,-0.8871,-0.885,-0.8834,-0.8832,-0.8838,-0.8831,-0.8831,-0.8823,-0.885,-0.8854,-0.8856,-0.8866,-0.8869,-0.8823,-0.8823,-0.8823,-0.8822,0,-0.9031,-0.9024,-0.9028,-0.9005,-0.8996,-0.8995,-0.8967,-0.8962,-0.8944,-0.8926,-0.8922,-0.8901,-0.8886,-0.8883,-0.8866,-0.8878,-0.8872,-0.8856,-0.8836,-0.8864,-0.8872,-0.8875,-0.8826,-0.8825,-0.8825,-0.8824,0,0,-0.909,-0.9051,-0.9053,-0.9042,-0.9015,-0.9009,-0.9006,-0.8991,-0.8987,-0.8971,-0.8968,-0.8954,-0.8939,-0.8929,-0.891,-0.8911,-0.8934,-0.8894,-0.8893,-0.8903,-0.8946,-0.896,-0.8965,-0.8921,-0.8921,-0.8922,-0.8948,0,-0.9119,-0.9112,-0.9086,-0.9088,-0.9081,-0.905,-0.9047,-0.903,-0.9013,-0.9005,-0.8986,-0.8977,-0.8957,-0.8951,-0.8951,-0.8931,-0.8942,-0.8929,-0.8919,-0.8919,-0.8926,-0.8969,-0.8983,-0.901,-0.8951,-0.8952,-0.8952,0,-0.9152,-0.9138,-0.9138,-0.9111,-0.9107,-0.9105,-0.9089,-0.9081,-0.9061,-0.9049,-0.9037,-0.9015,-0.9011,-0.8991,-0.8984,-0.8976,-0.897,-0.8959,-0.896,-0.8959,-0.8938,-0.8971,-0.9017,-0.9022,-0.8957,-0.8956,-0.8956,0,-0.9197,-0.9177,-0.9175,-0.9167,-0.9134,-0.9134,-0.912,-0.9099,-0.9091,-0.9077,-0.9071,-0.9056,-0.9049,-0.9038,-0.9013,-0.9,-0.9009,-0.8987,-0.8999,-0.9,-0.9004,-0.9005,-0.9052,-0.8998,-0.8998,-0.8998,-0.8998,0,-0.9233,-0.9235,-0.9195,-0.9194,-0.9195,-0.9164,-0.9166,-0.915,-0.9131,-0.9126,-0.9097,-0.9094,-0.906,-0.9052,-0.9032,-0.903,-0.9027,-0.9017,-0.9012,-0.902,-0.9022,-0.9017,-0.9016,-0.8999,-0.8999,-0.8998,-0.8998,0,-0.9284,-0.9257,-0.9253,-0.9222,-0.9214,-0.9216,-0.919,-0.9188,-0.9168,-0.9162,-0.9159,-0.9128,-0.9118,-0.9091,-0.9073,-0.906,-0.9064,-0.9053,-0.9071,-0.9068,-0.9082,-0.9081,-0.9129,-0.9134,-0.9076,-0.9077,-0.9077,0,-0.9309,-0.931,-0.9279,-0.9273,-0.9261,-0.9252,-0.9244,-0.9213,-0.9206,-0.9182,-0.9183,-0.917,-0.9158,-0.9142,-0.9119,-0.9105,-0.9095,-0.9113,-0.9093,-0.9101,-0.9097,-0.9098,-0.9098,-0.9118,-0.9119,-0.9119,-0.912,0,-0.9358,-0.9344,-0.9333,-0.9317,-0.9308,-0.9294,-0.9279,-0.9276,-0.9242,-0.9235,-0.9223,-0.9214,-0.9195,-0.9183,-0.9165,-0.9151,-0.913,-0.9126,-0.9128,-0.9138,-0.9148,-0.9144,-0.9084,-0.9125,-0.9125,-0.9124,-0.9124,-0.9124,-0.9398,-0.9397,-0.9375,-0.9363,-0.9348,-0.9334,-0.9331,-0.931,-0.93,-0.9282,-0.9264,-0.9255,-0.9234,-0.9208,-0.9195,-0.9187,-0.9176,-0.9179,-0.918,-0.9182,-0.9186,-0.9148,-0.9183,-0.9183,-0.9183,-0.9183,-0.9183,0,-0.9446,-0.943,-0.9419,-0.9398,-0.9389,-0.9369,-0.935,-0.9344,-0.9336,-0.9318,-0.9306,-0.9293,-0.928,-0.9255,-0.924,-0.9239,-0.9229,-0.9236,-0.9237,-0.9234,-0.9196,-0.9196,-0.9244,-0.9244,-0.9244,-0.9244,-0.9244,-0.9244,-0.947,-0.9468,-0.9451,-0.9441,-0.9425,-0.9415,-0.9406,-0.9393,-0.9378,-0.9365,-0.9354,-0.9337,-0.9316,-0.9299,-0.9286,-0.9279,-0.9276,-0.9286,-0.9277,-0.9242,-0.9236,-0.9231,-0.9231,-0.9286,-0.9286,-0.9315,-0.9315,-0.9315]},{"header":{"parameterUnit":"m.s-1","parameterCategory":1,"la1":30.2991,"la2":30.254,"lo1":-89.0895,"lo2":-89.0444,"dy":0.0017,"dx":0.0017,"nx":28,"ny":28,"refTime":"2025-08-17T09:00:00:Z","depth":0,"parameterNumber":3,"parameterNumberName":"V-component_of_WINDS"},"data":[0,0,0,0,0,0,0,0,0,0,0,0,0,0,0,0,0,0,0,0,0,0,0,0,0,0,0,0,0,0,0,0,0,0,0,0,0,0,0,0,0,0,0,0,0,0,0,0,0,0,0,0,0,0,0,0,0,0,-1.4464,-1.4464,0,-1.4452,-1.4452,-1.4452,-1.4451,-1.4451,-1.4451,-1.4451,-1.4438,-1.4438,-1.4437,0,0,0,0,0,0,0,0,0,0,0,0,0,-1.4484,-1.4483,-1.4464,-1.4464,-1.4463,-1.4452,-1.4452,-1.4452,-1.4451,-1.4451,-1.4451,-1.4451,-1.4439,-1.4438,-1.4437,0,0,0,0,0,0,0,0,0,0,0,0,0,-1.4474,-1.4483,-1.4464,-1.4462,-1.4461,-1.4452,-1.4452,-1.4452,-1.4451,-1.4451,-1.4451,-1.4452,-1.4439,-1.4438,-1.4437,-1.4429,0,0,-1.4435,-1.4435,0,0,0,0,0,0,0,0,-1.4474,-1.4473,-1.4462,-1.4462,-1.4461,-1.4453,-1.4454,-1.4444,-1.4451,-1.4455,-1.4451,-1.4452,-1.4443,-1.4442,-1.4439,-1.4429,-1.4428,-1.4435,-1.4435,-1.4434,-1.4434,0,0,0,0,0,0,0,-1.4475,-1.4474,-1.4459,-1.4462,-1.4461,-1.4461,-1.446,-1.4453,-1.4448,-1.4455,-1.4454,-1.4453,-1.4443,-1.444,-1.4439,-1.4428,-1.4435,-1.4435,-1.4434,-1.4434,-1.441,-1.441,0,0,0,0,0,0,-1.4476,-1.4474,-1.4459,-1.4459,-1.4469,-1.446,-1.4459,-1.4456,-1.4448,-1.4447,-1.4453,-1.4453,-1.4441,-1.444,-1.4439,-1.4429,-1.4434,-1.4434,-1.4433,-1.4411,-1.441,-1.441,0,0,0,0,0,0,-1.4477,-1.4475,-1.446,-1.4467,-1.4465,-1.446,-1.4456,-1.4455,-1.4453,-1.4447,-1.4446,-1.4451,-1.4441,-1.444,-1.4432,-1.4428,-1.4433,-1.4433,-1.4411,-1.4411,-1.441,-1.4409,0,0,0,0,0,0,-1.4477,-1.4475,-1.4472,-1.4466,-1.4464,-1.4453,-1.4456,-1.4455,-1.4452,-1.4452,-1.4445,-1.4444,-1.4441,-1.4433,-1.4431,-1.4428,-1.4432,-1.4411,-1.4411,-1.441,-1.441,-1.4409,-1.4409,0,0,0,0,0,-1.4478,-1.4472,-1.4472,-1.447,-1.446,-1.4453,-1.4452,-1.445,-1.4451,-1.4448,-1.4445,-1.4444,-1.4429,-1.4432,-1.443,-1.4426,-1.4411,-1.4411,-1.441,-1.441,-1.4409,-1.4409,0,0,0,0,0,0,-1.4477,-1.4471,-1.4471,-1.4463,-1.4459,-1.4453,-1.4449,-1.4449,-1.4443,-1.4444,-1.4441,-1.4439,-1.4431,-1.4428,-1.4431,-1.4418,-1.442,-1.442,-1.4421,-1.442,-1.4419,-1.442,-1.4432,0,0,0,0,0,-1.4476,-1.4471,-1.4466,-1.4459,-1.4457,-1.4454,-1.445,-1.4449,-1.4444,-1.4442,-1.4438,-1.4433,-1.4427,-1.4424,-1.4418,-1.4409,-1.4408,-1.4406,-1.4405,-1.4405,-1.4404,-1.44,-1.4399,-1.4409,-1.4409,-1.4409,0,0,-1.4473,-1.4469,-1.4466,-1.4459,-1.4455,-1.445,-1.4452,-1.4446,-1.4442,-1.4441,-1.4434,-1.4431,-1.4425,-1.4417,-1.4413,-1.4414,-1.4401,-1.4404,-1.4404,-1.4403,-1.4399,-1.4398,-1.4397,-1.4408,-1.4408,-1.4409,0,0,-1.4465,-1.4462,-1.4456,-1.4453,-1.4448,-1.4446,-1.4445,-1.4439,-1.4437,-1.443,-1.4429,-1.4425,-1.4415,-1.4411,-1.4407,-1.44,-1.4399,-1.4398,-1.4395,-1.4391,-1.439,-1.4389,-1.4386,-1.4385,-1.4397,-1.4397,-1.4397,0,-1.4462,-1.4455,-1.4453,-1.4448,-1.4445,-1.4444,-1.4439,-1.4435,-1.4428,-1.4426,-1.4427,-1.4416,-1.4412,-1.4403,-1.4401,-1.4398,-1.4397,-1.4398,-1.439,-1.4389,-1.4389,-1.4386,-1.4385,-1.4397,-1.4397,-1.4397,-1.4397,0,-1.4452,-1.4447,-1.4442,-1.4437,-1.4433,-1.4427,-1.4425,-1.4421,-1.4421,-1.4418,-1.4411,-1.4407,-1.44,-1.4398,-1.4397,-1.4389,-1.439,-1.4391,-1.4393,-1.4388,-1.4385,-1.4384,-1.4397,-1.4397,-1.4397,-1.4397,0,0,-1.4442,-1.4436,-1.4435,-1.4432,-1.4427,-1.4423,-1.4418,-1.4412,-1.4409,-1.4405,-1.44,-1.4392,-1.4393,-1.4389,-1.4388,-1.4384,-1.4379,-1.4385,-1.4385,-1.4384,-1.437,-1.437,-1.4368,-1.4379,-1.4378,-1.4378,-1.4371,0,-1.4434,-1.4424,-1.4423,-1.4415,-1.441,-1.441,-1.4405,-1.4402,-1.44,-1.4395,-1.4393,-1.4387,-1.4389,-1.4387,-1.4383,-1.438,-1.4376,-1.4381,-1.4374,-1.4373,-1.4375,-1.4367,-1.4366,-1.4359,-1.437,-1.4369,-1.4369,0,-1.4423,-1.4419,-1.441,-1.4406,-1.4404,-1.44,-1.4395,-1.4391,-1.4387,-1.4386,-1.4382,-1.4381,-1.4376,-1.4378,-1.437,-1.4374,-1.4371,-1.4369,-1.4369,-1.4368,-1.4371,-1.4366,-1.4357,-1.4356,-1.4368,-1.4368,-1.4368,0,-1.4417,-1.4409,-1.4403,-1.4401,-1.4396,-1.4393,-1.4391,-1.4388,-1.4385,-1.438,-1.4378,-1.4373,-1.4371,-1.4367,-1.4365,-1.4367,-1.4357,-1.4359,-1.4356,-1.4356,-1.4353,-1.4353,-1.4344,-1.4352,-1.4352,-1.4352,-1.4352,0,-1.4407,-1.4402,-1.44,-1.4396,-1.4391,-1.4389,-1.4384,-1.4381,-1.4378,-1.4374,-1.4374,-1.437,-1.4367,-1.4363,-1.4361,-1.4355,-1.4354,-1.4353,-1.4352,-1.4352,-1.4353,-1.435,-1.4351,-1.4351,-1.4351,-1.4352,-1.4352,0,-1.4399,-1.4398,-1.4391,-1.4388,-1.4387,-1.4383,-1.438,-1.4376,-1.4374,-1.4369,-1.4368,-1.4365,-1.436,-1.4358,-1.4351,-1.435,-1.4343,-1.4343,-1.4345,-1.4344,-1.4341,-1.4341,-1.4329,-1.4328,-1.4337,-1.4337,-1.4337,0,-1.4393,-1.4389,-1.4386,-1.4383,-1.4381,-1.4377,-1.4374,-1.4373,-1.437,-1.4366,-1.4363,-1.4358,-1.4354,-1.4346,-1.4343,-1.4338,-1.4338,-1.4334,-1.4337,-1.4338,-1.4338,-1.4338,-1.4338,-1.4333,-1.4333,-1.4333,-1.4333,0,-1.4383,-1.4383,-1.4379,-1.4375,-1.4372,-1.4369,-1.4365,-1.4363,-1.4362,-1.4359,-1.4354,-1.4351,-1.4345,-1.434,-1.4335,-1.4333,-1.4333,-1.4332,-1.4331,-1.4331,-1.4332,-1.4332,-1.4343,-1.4332,-1.4332,-1.4333,-1.4333,-1.4333,-1.4375,-1.4372,-1.4369,-1.4365,-1.4363,-1.436,-1.4357,-1.4355,-1.4351,-1.4347,-1.4346,-1.4341,-1.4338,-1.4331,-1.4329,-1.4325,-1.4326,-1.4324,-1.4324,-1.4323,-1.4323,-1.4333,-1.4324,-1.4324,-1.4324,-1.4324,-1.4324,0,-1.4365,-1.4363,-1.436,-1.4356,-1.4353,-1.4354,-1.4351,-1.4348,-1.4343,-1.434,-1.4337,-1.4332,-1.4327,-1.4324,-1.432,-1.4317,-1.4317,-1.4316,-1.4316,-1.4316,-1.4322,-1.4324,-1.4316,-1.4316,-1.4316,-1.4316,-1.4316,-1.4316,-1.4359,-1.4353,-1.4353,-1.4347,-1.4345,-1.434,-1.4338,-1.4336,-1.4334,-1.4328,-1.4325,-1.4323,-1.432,-1.4316,-1.4312,-1.4311,-1.431,-1.4308,-1.4308,-1.4314,-1.4315,-1.4316,-1.4317,-1.4308,-1.4308,-1.4301,-1.4301,-1.4301]}]]